Weather History for False Pass, AK

Change the Weather History Date:

Sunday, March 10, 2013

  Actual Average (PACD) Record (PACD)
Temperature  
Mean Temperature 37 °F 30 °F  
Max Temperature 41 °F 35 °F 45 °F (1987)
Min Temperature 33 °F 25 °F -6 °F (1971)
Degree Days  
Heating Degree Days 28 35  
Month to date heating degree days 350  
Since 1 July heating degree days 6574  
Cooling Degree Days 0    
Month to date cooling degree days  
Year to date cooling degree days  
Moisture  
Dew Point 34 °F    
Average Humidity 88    
Maximum Humidity 100    
Minimum Humidity 73    
Precipitation  
Precipitation 0.18 in 0.10 in 1.00 in (1958)
Month to date precipitation 0.98  
Year to date precipitation 7.12  
Snow  
Snow 0.00 in 0.40 in 2.40 in (1982)
Month to date snowfall 4.3  
Since 1 July snowfall 56.5  
Snow Depth -    
Sea Level Pressure  
Sea Level Pressure 30.67 in    
Wind  
Wind Speed 10 mph (NW)    
Max Wind Speed 22 mph    
Max Gust Speed 32 mph    
Visibility 7 miles    
Events Fog , Rain , Snow    
T = Trace of Precipitation, MM = Missing Value Source: NWS Daily Summary

Daily Weather History Graph

Daily Weather History Graph

Search for Another Location

Airport:

Trip Planner

Search our weather history database for the weather conditions in past years. The results will help you decide how hot, cold, wet, or windy it might be!

Date:

Astronomy

Mar. 10, 2013 Rise Set
Actual Time 8:19 AM HADT 7:48 PM HADT
Civil Twilight 7:43 AM HADT 8:24 PM HADT
Nautical Twilight 7:02 AM HADT 9:06 PM HADT
Astronomical Twilight 6:18 AM HADT 9:50 PM HADT
Moon 7:31 AM HADT (3/10) 7:10 PM HADT (3/10)
Length of Visible Light 12h 40m
Length of Day
11h 28m
Waning Crescent, 1% of the Moon is Illuminated
Mar 10
Waning Crescent
Mar 11
New
Mar 19
First Quarter
Mar 27
Full
Apr 2
Last Quarter

Hourly Weather History & Observations

Time (HADT) Temp. Windchill Dew Point Humidity Pressure Visibility Wind Dir Wind Speed Gust Speed Precip Events Conditions
12:01 AM 39.0 °F 34.8 °F 30.9 °F 73% 30.59 in 10.0 mi South 5.8 mph - N/A   Overcast
1:01 AM 37.9 °F 34.4 °F 30.9 °F 76% 30.62 in 10.0 mi NW 4.6 mph - 0.00 in Rain Light Rain
4:01 AM 36.0 °F 33.3 °F 33.1 °F 89% 30.64 in 10.0 mi Variable 3.5 mph - 0.00 in Rain Light Rain
4:30 AM 35.6 °F 31.7 °F 33.8 °F 93% 30.35 in 8.0 mi Variable 4.6 mph - 0.02 in Snow Light Snow
4:40 AM 37.4 °F 32.8 °F 33.8 °F 87% 30.36 in 10.0 mi ENE 5.8 mph - 0.02 in Rain Light Rain
5:01 AM 39.9 °F 33.4 °F 34.0 °F 79% 30.65 in 10.0 mi SSE 10.4 mph 24.2 mph 0.03 in Rain Light Rain
6:01 AM 39.9 °F 31.8 °F 34.0 °F 79% 30.66 in 10.0 mi South 15.0 mph 25.3 mph 0.04 in Rain Light Rain
7:01 AM 39.9 °F 31.4 °F 34.0 °F 79% 30.67 in 8.0 mi WSW 16.1 mph 23.0 mph 0.04 in Rain Light Rain
8:01 AM 39.9 °F 30.2 °F 34.0 °F 79% 30.69 in 6.0 mi WSW 20.7 mph 32.2 mph 0.04 in Rain Light Rain
9:01 AM 39.9 °F 30.2 °F 33.1 °F 77% 30.71 in 5.0 mi WSW 20.7 mph 29.9 mph 0.01 in Rain Light Rain
10:01 AM 39.9 °F 31.8 °F 34.0 °F 79% 30.73 in 10.0 mi WSW 15.0 mph 21.9 mph 0.02 in Rain Light Rain
11:01 AM 39.0 °F 32.8 °F 34.0 °F 82% 30.76 in 8.0 mi West 9.2 mph 21.9 mph 0.00 in Rain Light Rain
12:01 PM 39.9 °F 35.8 °F 35.1 °F 83% 30.78 in 9.0 mi WSW 5.8 mph - 0.00 in Rain Light Rain
12:49 PM 41.0 °F 35.8 °F 33.8 °F 76% 30.50 in 10.0 mi West 8.1 mph - 0.00 in   Overcast
1:01 PM 41.0 °F 36.4 °F 34.0 °F 76% 30.80 in 10.0 mi WSW 6.9 mph - 0.00 in   Overcast
2:01 PM 41.0 °F - 35.6 °F 81% 30.52 in 10.0 mi Calm Calm - N/A   Overcast
3:01 PM 41.0 °F 35.2 °F 35.1 °F 79% 30.82 in 10.0 mi WSW 9.2 mph - N/A   Overcast
4:01 PM 41.0 °F 36.4 °F 35.1 °F 79% 30.82 in 10.0 mi West 6.9 mph - N/A   Overcast
7:01 PM 39.0 °F 32.3 °F 35.1 °F 86% 30.84 in 10.0 mi NNW 10.4 mph - N/A   Overcast
8:01 PM 39.0 °F 32.3 °F 35.1 °F 86% 30.84 in 10.0 mi NW 10.4 mph - N/A   Mostly Cloudy
9:01 PM 37.0 °F 29.8 °F 35.1 °F 93% 30.86 in 5.0 mi NNW 10.4 mph - N/A   Overcast
9:15 PM 37.4 °F 27.2 °F 33.8 °F 87% 30.57 in 1.5 mi North 19.6 mph - N/A   Overcast
9:20 PM 35.6 °F 25.2 °F 33.8 °F 93% 30.58 in 0.8 mi North 18.4 mph 26.5 mph 0.00 in   Overcast
9:27 PM 35.6 °F 24.2 °F 33.8 °F 93% 30.58 in 0.5 mi North 21.9 mph 28.8 mph 0.00 in Fog , Rain Light Rain
10:01 PM 34.0 °F 23.4 °F 34.0 °F 100% 30.88 in 0.5 mi North 17.3 mph 23.0 mph 0.00 in Fog , Rain Light Rain
10:35 PM 33.8 °F 24.3 °F 33.8 °F 100% 30.61 in 0.5 mi North 13.8 mph - 0.00 in Fog , Rain Light Rain
10:45 PM 33.8 °F 23.5 °F 33.8 °F 100% 30.61 in 1.0 mi North 16.1 mph - 0.00 in Rain Light Rain
10:57 PM 33.8 °F 24.3 °F 33.8 °F 100% 30.61 in 1.2 mi North 13.8 mph - 0.00 in   Overcast
11:01 PM 34.0 °F 24.2 °F 34.0 °F 100% 30.91 in 1.2 mi North 15.0 mph - 0.00 in   Overcast
11:05 PM 33.8 °F 24.3 °F 33.8 °F 100% 30.61 in 2.0 mi North 13.8 mph - 0.00 in   Overcast
11:17 PM 33.8 °F 25.3 °F 33.8 °F 100% 30.62 in 5.0 mi North 11.5 mph - 0.00 in   Overcast
11:32 PM 33.8 °F 24.8 °F 33.8 °F 100% 30.62 in 7.0 mi North 12.7 mph 19.6 mph 0.00 in   Overcast
11:53 PM 35.6 °F 25.9 °F 35.6 °F 100% 30.62 in 10.0 mi NNW 16.1 mph 21.9 mph 0.00 in   Overcast
12:01 AM 35.1 °F 27.4 °F 34.0 °F 96% 30.91 in 10.0 mi NNW 10.4 mph 19.6 mph 0.00 in   Overcast
12:11 AM 35.6 °F 26.6 °F 33.8 °F 93% 30.62 in 10.0 mi North 13.8 mph - N/A   Overcast
12:40 AM 35.6 °F 26.2 °F 33.8 °F 93% 30.62 in 10.0 mi North 15.0 mph 20.7 mph N/A   Overcast